Date String (YYYY-MM-DD hh:mm:ss) UTC,Instrument flags,absolute air pressure of the measurement (hPa),sample flow rate (lpm),inlet stack bypass flow (lpm),air temperature of the measurement (°C),ambient temperature measured by the external sensor (°C),aerosol sample conditioner tube jacket temperature (°C),OPC LED temperature (°C),internal box temperature (°C),relative humidity of the measurement (%),span deviation,mass concentration of particles derived from Lorenz-Mie calculation of OPC scattering (μg/m³),mass concentration of particles derived from Lorenz-Mie calculation of OPC scattering (μg/m³),mass concentration of particles derived from Lorenz-Mie calculation of OPC scattering (μg/m³)
DateTimeUTC,F1_M11,P_M11,Q1_M11,Q2_M11,T1_M11,T2_M11,T3_M11,T4_M11,T5_M11,U1_M11,ZSPAN_M11,X0_M11,X2_M11,X1_M11
2024-04-28 08:00:00,SystemResetWarning,0824.5,5.01,000.00,021.7,021.0,000.0,030.2,023.5,025.6,0000.0,0001.35,0001.32,0001.29
2024-04-28 08:01:00,SystemResetWarning,0824.5,5.00,000.00,021.7,021.0,000.0,030.2,023.5,025.5,0000.0,0001.32,0001.27,0001.24
2024-04-28 08:02:00,SystemResetWarning,0824.5,5.00,000.00,021.7,021.0,000.0,030.2,023.5,025.5,0000.0,0001.30,0001.25,0001.23
2024-04-28 08:03:00,SystemResetWarning,0824.5,5.00,000.00,021.7,021.0,000.0,030.2,023.5,025.6,0000.0,0001.26,0001.23,0001.21
2024-04-28 08:04:00,SystemResetWarning,0824.4,5.00,000.00,021.6,021.0,000.0,030.2,023.4,025.5,0000.0,0001.21,0001.20,0001.18
2024-04-28 08:05:00,SystemResetWarning,0824.4,4.99,000.00,021.6,020.9,000.0,030.2,023.4,025.4,0000.0,0001.18,0001.16,0001.15
2024-04-28 08:06:00,SystemResetWarning,0824.4,5.00,000.00,021.6,020.9,000.0,030.2,023.4,025.4,0000.0,0001.13,0001.12,0001.10
2024-04-28 08:07:00,SystemResetWarning,0824.4,5.00,000.00,021.6,020.9,000.0,030.2,023.4,025.3,0000.0,0001.11,0001.09,0001.06
2024-04-28 08:08:00,SystemResetWarning,0824.4,5.00,000.00,021.6,020.9,000.0,030.2,023.4,025.3,0000.0,0001.05,0001.04,0001.00
2024-04-28 08:09:00,SystemResetWarning,0824.4,5.00,000.00,021.6,020.9,000.0,030.2,023.4,025.4,0000.0,0001.01,0000.99,0000.96
2024-04-28 08:10:00,SystemResetWarning,0824.4,5.00,000.00,021.6,020.9,000.0,030.2,023.4,025.4,0000.0,0000.99,0000.94,0000.89
2024-04-28 08:11:00,SystemResetWarning,0824.3,5.00,000.00,021.6,020.9,000.0,030.2,023.4,025.5,0000.0,0001.01,0000.92,0000.86
2024-04-28 08:12:00,SystemResetWarning,0824.4,5.01,000.00,021.6,020.9,000.0,030.2,023.4,025.4,0000.0,0001.05,0000.93,0000.86
2024-04-28 08:13:00,SystemResetWarning,0824.3,5.00,000.00,021.6,020.9,000.0,030.2,023.4,025.4,0000.0,0001.03,0000.91,0000.84
2024-04-28 08:14:00,SystemResetWarning,0824.3,5.01,000.00,021.6,020.9,000.0,030.2,023.4,025.4,0000.0,0001.01,0000.89,0000.82
2024-04-28 08:15:00,SystemResetWarning,0824.3,5.00,000.00,021.6,020.9,000.0,030.1,023.4,025.4,0000.0,0000.99,0000.87,0000.79
2024-04-28 08:16:00,SystemResetWarning,0824.2,5.00,000.00,021.6,020.9,000.0,030.1,023.4,025.5,0000.0,0000.96,0000.85,0000.78
2024-04-28 08:17:00,SystemResetWarning,0824.2,4.99,000.00,021.6,020.9,000.0,030.1,023.4,025.4,0000.0,0001.00,0000.86,0000.78
2024-04-28 08:18:00,SystemResetWarning,0824.1,4.99,000.00,021.6,020.9,000.0,030.1,023.4,025.4,0000.0,0001.02,0000.86,0000.79
2024-04-28 08:19:00,SystemResetWarning,0824.2,5.00,000.00,021.6,020.9,000.0,030.1,023.3,025.3,0000.0,0001.05,0000.87,0000.79
2024-04-28 08:20:00,SystemResetWarning,0824.2,5.00,000.00,021.6,020.9,000.0,030.1,023.3,025.2,0000.0,0001.04,0000.86,0000.78
2024-04-28 08:21:00,SystemResetWarning,0824.1,5.00,000.00,021.6,020.9,000.0,030.1,023.3,025.1,0000.0,0000.98,0000.84,0000.76
2024-04-28 08:22:00,SystemResetWarning,0824.1,5.01,000.00,021.6,020.8,000.0,030.1,023.3,025.2,0000.0,0000.97,0000.81,0000.75
2024-04-28 08:23:00,SystemResetWarning,0824.0,5.00,000.00,021.5,020.8,000.0,030.1,023.3,025.2,0000.0,0000.91,0000.78,0000.73
2024-04-28 08:24:00,SystemResetWarning,0824.0,5.00,000.00,021.5,020.8,000.0,030.1,023.3,025.4,0000.0,0000.91,0000.78,0000.73
2024-04-28 08:25:00,SystemResetWarning,0824.0,5.00,000.00,021.5,020.8,000.0,030.1,023.3,025.4,0000.0,0000.91,0000.78,0000.72
2024-04-28 08:26:00,SystemResetWarning,0824.0,5.00,000.00,021.5,020.8,000.0,030.1,023.3,025.3,0000.0,0000.89,0000.77,0000.71
2024-04-28 08:27:00,SystemResetWarning,0824.0,5.01,000.00,021.5,020.8,000.0,030.1,023.3,025.4,0000.0,0000.91,0000.77,0000.71
2024-04-28 08:28:00,SystemResetWarning,0824.0,4.99,000.00,021.5,020.8,000.0,030.1,023.3,025.4,0000.0,0000.89,0000.76,0000.70
2024-04-28 08:29:00,SystemResetWarning,0824.0,5.00,000.00,021.5,020.8,000.0,030.1,023.3,025.4,0000.0,0000.84,0000.74,0000.71
2024-04-28 08:30:00,SystemResetWarning,0824.0,5.00,000.00,021.5,020.8,000.0,030.1,023.3,025.4,0000.0,0000.83,0000.74,0000.71
2024-04-28 08:31:00,SystemResetWarning,0824.0,5.00,000.00,021.5,020.8,000.0,030.1,023.3,025.4,0000.0,0000.86,0000.76,0000.73
2024-04-28 08:32:00,SystemResetWarning,0824.0,5.00,000.00,021.5,020.8,000.0,030.1,023.3,025.3,0000.0,0000.88,0000.78,0000.74
2024-04-28 08:33:00,SystemResetWarning,0824.0,5.00,000.00,021.5,020.8,000.0,030.1,023.3,025.2,0000.0,0000.86,0000.78,0000.75
2024-04-28 08:34:00,SystemResetWarning,0824.0,5.00,000.00,021.5,020.8,000.0,030.1,023.3,025.4,0000.0,0000.84,0000.78,0000.76
2024-04-28 08:35:00,SystemResetWarning,0824.0,5.00,000.00,021.5,020.8,000.0,030.1,023.3,025.5,0000.0,0000.85,0000.80,0000.77
2024-04-28 08:36:00,SystemResetWarning,0824.0,5.00,000.00,021.5,020.8,000.0,030.1,023.3,025.5,0000.0,0000.88,0000.81,0000.78
2024-04-28 08:37:00,SystemResetWarning,0824.0,5.01,000.00,021.5,020.8,000.0,030.1,023.3,025.5,0000.0,0000.89,0000.82,0000.79
2024-04-28 08:38:00,SystemResetWarning,0824.0,4.99,000.00,021.5,020.8,000.0,030.0,023.3,025.5,0000.0,0000.88,0000.83,0000.80
2024-04-28 08:39:00,SystemResetWarning,0824.0,4.99,000.00,021.5,020.8,000.0,030.0,023.3,025.5,0000.0,0000.90,0000.83,0000.80
2024-04-28 08:40:00,SystemResetWarning,0824.0,5.00,000.00,021.5,020.8,000.0,030.0,023.3,025.5,0000.0,0000.99,0000.85,0000.80
2024-04-28 08:41:00,SystemResetWarning,0824.0,5.00,000.00,021.5,020.8,000.0,030.0,023.3,025.5,0000.0,0000.98,0000.84,0000.79
2024-04-28 08:42:00,SystemResetWarning,0824.0,5.00,000.00,021.5,020.8,000.0,030.0,023.3,025.4,0000.0,0000.95,0000.82,0000.78
2024-04-28 08:43:00,SystemResetWarning,0824.0,5.01,000.00,021.5,020.8,000.0,030.0,023.3,025.4,0000.0,0000.96,0000.82,0000.77
2024-04-28 08:44:00,SystemResetWarning,0824.0,5.01,000.00,021.5,020.8,000.0,030.0,023.3,025.3,0000.0,0000.95,0000.82,0000.77
2024-04-28 08:45:00,SystemResetWarning,0823.9,5.00,000.00,021.5,020.8,000.0,030.0,023.3,025.3,0000.0,0000.95,0000.82,0000.78
2024-04-28 08:46:00,SystemResetWarning,0824.0,4.99,000.00,021.5,020.8,000.0,030.0,023.3,025.3,0000.0,0000.99,0000.83,0000.77
2024-04-28 08:47:00,SystemResetWarning,0823.9,5.00,000.00,021.5,020.8,000.0,030.0,023.3,025.3,0000.0,0001.02,0000.82,0000.76
2024-04-28 08:48:00,SystemResetWarning,0824.0,5.01,000.00,021.5,020.8,000.0,030.0,023.3,025.3,0000.0,0001.00,0000.81,0000.75
2024-04-28 08:49:00,SystemResetWarning,0824.0,5.01,000.00,021.5,020.8,000.0,030.0,023.3,025.2,0000.0,0001.00,0000.81,0000.74
2024-04-28 08:50:00,SystemResetWarning,0824.0,5.01,000.00,021.5,020.9,000.0,030.0,023.3,025.2,0000.0,0000.97,0000.80,0000.74
2024-04-28 08:51:00,SystemResetWarning,0824.0,5.00,000.00,021.5,020.9,000.0,030.0,023.3,025.1,0000.0,0000.89,0000.78,0000.74
2024-04-28 08:52:00,SystemResetWarning,0823.9,5.00,000.00,021.5,020.9,000.0,030.0,023.3,025.0,0000.0,0000.87,0000.78,0000.74
2024-04-28 08:53:00,SystemResetWarning,0824.0,4.99,000.00,021.5,020.9,000.0,030.0,023.3,024.9,0000.0,0000.88,0000.78,0000.74
2024-04-28 08:54:00,SystemResetWarning,0824.0,4.99,000.00,021.5,020.9,000.0,030.0,023.3,024.8,0000.0,0000.89,0000.79,0000.74
2024-04-28 08:55:00,SystemResetWarning,0824.0,5.01,000.00,021.5,020.9,000.0,030.0,023.3,024.8,0000.0,0000.89,0000.79,0000.74
2024-04-28 08:56:00,SystemResetWarning,0824.0,5.01,000.00,021.5,020.9,000.0,030.0,023.3,024.7,0000.0,0000.90,0000.80,0000.75
2024-04-28 08:57:00,SystemResetWarning,0824.0,5.00,000.00,021.5,020.9,000.0,030.0,023.3,024.6,0000.0,0000.89,0000.81,0000.78
2024-04-28 08:58:00,SystemResetWarning,0824.0,4.99,000.00,021.5,020.9,000.0,030.0,023.3,024.6,0000.0,0000.87,0000.84,0000.82
2024-04-28 08:59:00,SystemResetWarning,0824.0,5.00,000.00,021.5,020.9,000.0,030.0,023.3,024.5,0000.0,0000.95,0000.90,0000.87
